[[{"header":{"parameterUnit":"m.s-1","parameterCategory":1,"la1":30.2991,"la2":30.254,"lo1":-89.0895,"lo2":-89.0444,"dy":0.0017,"dx":0.0017,"nx":28,"ny":28,"refTime":"2025-12-19T09:00:00:Z","depth":0,"parameterNumber":2,"parameterNumberName":"U-component_of_WINDS"},"data":[0,0,0,0,0,0,0,0,0,0,0,0,0,0,0,0,0,0,0,0,0,0,0,0,0,0,0,0,0,0,0,0,0,0,0,0,0,0,0,0,0,0,0,0,0,0,0,0,0,0,0,0,0,0,0,0,0,0,-2.4851,-2.4852,0,-2.4903,-2.4903,-2.4904,-2.4901,-2.4901,-2.49,-2.4899,-2.495,-2.4952,-2.4954,0,0,0,0,0,0,0,0,0,0,0,0,0,-2.4749,-2.4751,-2.4851,-2.4852,-2.4852,-2.4903,-2.4903,-2.4904,-2.4901,-2.4901,-2.49,-2.4899,-2.4949,-2.4952,-2.4954,0,0,0,0,0,0,0,0,0,0,0,0,0,-2.4796,-2.4751,-2.4851,-2.4857,-2.4858,-2.4902,-2.4903,-2.4904,-2.4902,-2.4901,-2.4899,-2.4898,-2.4949,-2.4952,-2.4955,-2.4995,0,0,-2.4964,-2.4965,0,0,0,0,0,0,0,0,-2.4793,-2.48,-2.4856,-2.4857,-2.4858,-2.4894,-2.4886,-2.4935,-2.4902,-2.4885,-2.4899,-2.4898,-2.4932,-2.4937,-2.4949,-2.4998,-2.5,-2.4964,-2.4966,-2.4967,-2.4968,0,0,0,0,0,0,0,-2.479,-2.4797,-2.4871,-2.4857,-2.4858,-2.4857,-2.4862,-2.4895,-2.4914,-2.4887,-2.4887,-2.4893,-2.4933,-2.4946,-2.495,-2.5001,-2.4964,-2.4967,-2.4969,-2.497,-2.5083,-2.5085,0,0,0,0,0,0,-2.4786,-2.4795,-2.487,-2.4873,-2.4822,-2.486,-2.4866,-2.4884,-2.4914,-2.4917,-2.4894,-2.4892,-2.4941,-2.4946,-2.4952,-2.4999,-2.4967,-2.497,-2.4972,-2.5082,-2.5084,-2.5085,0,0,0,0,0,0,-2.4783,-2.4792,-2.4868,-2.4834,-2.4843,-2.4862,-2.4883,-2.4886,-2.4898,-2.4919,-2.4922,-2.4903,-2.494,-2.4947,-2.4984,-2.5001,-2.4972,-2.4974,-2.5081,-2.5083,-2.5084,-2.5096,0,0,0,0,0,0,-2.478,-2.4792,-2.4808,-2.4834,-2.4845,-2.49,-2.4884,-2.4887,-2.4904,-2.4903,-2.4929,-2.4933,-2.494,-2.498,-2.4987,-2.5005,-2.4977,-2.5079,-2.5082,-2.5084,-2.5095,-2.5098,-2.5102,0,0,0,0,0,-2.4777,-2.4809,-2.4809,-2.4818,-2.4866,-2.4901,-2.4907,-2.4916,-2.4905,-2.4921,-2.4934,-2.4932,-2.4999,-2.4983,-2.4992,-2.5011,-2.5078,-2.5081,-2.5084,-2.5093,-2.5098,-2.5102,0,0,0,0,0,0,-2.4784,-2.4813,-2.4812,-2.4854,-2.4875,-2.4901,-2.4921,-2.4921,-2.4945,-2.4943,-2.4952,-2.4958,-2.4994,-2.5007,-2.4989,-2.5051,-2.5037,-2.5041,-2.5041,-2.5046,-2.5049,-2.5045,-2.4979,0,0,0,0,0,-2.479,-2.4817,-2.4841,-2.4875,-2.4886,-2.4902,-2.4917,-2.4922,-2.4944,-2.4952,-2.4968,-2.4989,-2.5015,-2.5031,-2.5056,-2.5097,-2.5102,-2.5114,-2.5118,-2.5121,-2.5124,-2.5144,-2.515,-2.5094,-2.5094,-2.5094,0,0,-2.4804,-2.4823,-2.4839,-2.4877,-2.4894,-2.492,-2.4909,-2.4938,-2.4957,-2.4957,-2.4992,-2.5004,-2.5028,-2.5067,-2.5084,-2.5078,-2.514,-2.5124,-2.5126,-2.5128,-2.5148,-2.5153,-2.5157,-2.5096,-2.5095,-2.5095,0,0,-2.4841,-2.4859,-2.4889,-2.4906,-2.4932,-2.4942,-2.4949,-2.4975,-2.4983,-2.5019,-2.5018,-2.5041,-2.5086,-2.5102,-2.5116,-2.5159,-2.5157,-2.5167,-2.5185,-2.5205,-2.5209,-2.5213,-2.5227,-2.5232,-2.5171,-2.5171,-2.5171,0,-2.4854,-2.4895,-2.4905,-2.4933,-2.4949,-2.4951,-2.498,-2.4996,-2.5028,-2.5039,-2.5032,-2.5086,-2.5103,-2.5144,-2.5154,-2.5167,-2.5174,-2.5163,-2.5208,-2.5212,-2.5216,-2.5229,-2.5234,-2.5171,-2.5171,-2.5171,-2.5171,0,-2.4909,-2.4937,-2.4958,-2.4989,-2.5007,-2.5036,-2.505,-2.5067,-2.5071,-2.5081,-2.5117,-2.5136,-2.5164,-2.5175,-2.5178,-2.5216,-2.5211,-2.5206,-2.5192,-2.5222,-2.5234,-2.5239,-2.5173,-2.5172,-2.5172,-2.5172,0,0,-2.4951,-2.4987,-2.4994,-2.5007,-2.5036,-2.5057,-2.5086,-2.5114,-2.5128,-2.515,-2.5173,-2.521,-2.5205,-2.5221,-2.5227,-2.5245,-2.5275,-2.5237,-2.5238,-2.5242,-2.5316,-2.5318,-2.5324,-2.5275,-2.5276,-2.5277,-2.5313,0,-2.499,-2.5041,-2.505,-2.5094,-2.5119,-2.5121,-2.5146,-2.5165,-2.5176,-2.5198,-2.521,-2.5235,-2.5228,-2.5237,-2.5255,-2.5268,-2.529,-2.5265,-2.5295,-2.5296,-2.5287,-2.5331,-2.5334,-2.5367,-2.5318,-2.5319,-2.532,0,-2.5041,-2.5065,-2.5111,-2.5135,-2.5146,-2.5168,-2.5193,-2.5215,-2.5237,-2.5243,-2.5261,-2.5264,-2.5293,-2.5279,-2.5318,-2.5301,-2.5314,-2.5322,-2.5323,-2.5324,-2.5308,-2.5331,-2.5379,-2.5383,-2.5328,-2.5327,-2.5327,0,-2.5065,-2.5108,-2.5141,-2.5153,-2.5182,-2.5197,-2.521,-2.5231,-2.5246,-2.5269,-2.5278,-2.5304,-2.5317,-2.5336,-2.5346,-2.5335,-2.5383,-2.5371,-2.5388,-2.5388,-2.5397,-2.5396,-2.5445,-2.5408,-2.5408,-2.5408,-2.5408,0,-2.5106,-2.5134,-2.5152,-2.5172,-2.5203,-2.5213,-2.5243,-2.5256,-2.5274,-2.5296,-2.53,-2.532,-2.5332,-2.5354,-2.5362,-2.5392,-2.5398,-2.5403,-2.5404,-2.5402,-2.5401,-2.5409,-2.5406,-2.541,-2.5409,-2.5409,-2.5409,0,-2.5137,-2.515,-2.5186,-2.521,-2.5217,-2.5239,-2.5259,-2.5278,-2.5289,-2.5317,-2.5324,-2.534,-2.5366,-2.5378,-2.541,-2.5415,-2.5449,-2.5449,-2.5441,-2.5441,-2.5457,-2.5455,-2.5511,-2.5518,-2.5479,-2.548,-2.548,0,-2.5161,-2.5182,-2.5209,-2.5224,-2.5237,-2.5261,-2.5277,-2.5288,-2.5305,-2.5331,-2.5346,-2.5372,-2.5393,-2.5434,-2.5449,-2.5473,-2.5473,-2.5491,-2.5476,-2.5473,-2.5471,-2.5469,-2.547,-2.5493,-2.5493,-2.5494,-2.5494,0,-2.5202,-2.5207,-2.523,-2.5256,-2.5274,-2.5295,-2.5315,-2.5327,-2.5341,-2.5359,-2.5385,-2.5402,-2.5434,-2.5459,-2.5484,-2.5496,-2.5497,-2.5499,-2.5504,-2.55,-2.5494,-2.5495,-2.5446,-2.5497,-2.5497,-2.5497,-2.5496,-2.5496,-2.5229,-2.5247,-2.5269,-2.5294,-2.531,-2.5328,-2.5347,-2.536,-2.5383,-2.541,-2.5415,-2.5443,-2.5463,-2.5497,-2.551,-2.5531,-2.5527,-2.5534,-2.5536,-2.5537,-2.5537,-2.5492,-2.5536,-2.5536,-2.5536,-2.5536,-2.5536,0,-2.5268,-2.5282,-2.5305,-2.5333,-2.5352,-2.5352,-2.5374,-2.539,-2.5414,-2.5434,-2.5454,-2.5484,-2.5508,-2.5525,-2.5549,-2.5563,-2.5564,-2.5569,-2.5567,-2.5569,-2.5541,-2.5533,-2.5568,-2.5568,-2.5568,-2.5568,-2.5568,-2.5568,-2.5291,-2.5321,-2.5329,-2.5368,-2.5381,-2.5409,-2.5421,-2.5437,-2.5453,-2.5486,-2.5506,-2.5517,-2.5534,-2.556,-2.5582,-2.5586,-2.5594,-2.5599,-2.5603,-2.5575,-2.5572,-2.5568,-2.5561,-2.5601,-2.5601,-2.563,-2.563,-2.563]},{"header":{"parameterUnit":"m.s-1","parameterCategory":1,"la1":30.2991,"la2":30.254,"lo1":-89.0895,"lo2":-89.0444,"dy":0.0017,"dx":0.0017,"nx":28,"ny":28,"refTime":"2025-12-19T09:00:00:Z","depth":0,"parameterNumber":3,"parameterNumberName":"V-component_of_WINDS"},"data":[0,0,0,0,0,0,0,0,0,0,0,0,0,0,0,0,0,0,0,0,0,0,0,0,0,0,0,0,0,0,0,0,0,0,0,0,0,0,0,0,0,0,0,0,0,0,0,0,0,0,0,0,0,0,0,0,0,0,2.7373,2.7374,0,2.7453,2.7454,2.7455,2.7522,2.7523,2.7523,2.7524,2.7604,2.7606,2.7607,0,0,0,0,0,0,0,0,0,0,0,0,0,2.7281,2.7282,2.7373,2.7374,2.7375,2.7453,2.7454,2.7455,2.7522,2.7523,2.7524,2.7524,2.7604,2.7606,2.7607,0,0,0,0,0,0,0,0,0,0,0,0,0,2.7337,2.7283,2.7373,2.7418,2.7423,2.7453,2.7454,2.7455,2.7522,2.7523,2.7524,2.7525,2.7603,2.7605,2.7608,2.7599,0,0,2.7614,2.7615,0,0,0,0,0,0,0,0,2.7333,2.734,2.741,2.7415,2.742,2.7479,2.7451,2.7503,2.7521,2.7484,2.7524,2.7525,2.7562,2.7567,2.758,2.7603,2.7606,2.7614,2.7616,2.7617,2.7617,0,0,0,0,0,0,0,2.733,2.7337,2.7405,2.7411,2.7417,2.7435,2.7444,2.7461,2.7516,2.7487,2.7492,2.7501,2.7565,2.7577,2.7582,2.7607,2.7614,2.7616,2.7618,2.7619,2.7632,2.7631,0,0,0,0,0,0,2.7319,2.7333,2.7402,2.7407,2.7379,2.7436,2.7446,2.7459,2.7516,2.7525,2.75,2.7504,2.7573,2.7579,2.7585,2.7582,2.7617,2.7619,2.762,2.7633,2.7632,2.7631,0,0,0,0,0,0,2.7316,2.7324,2.7399,2.7372,2.7383,2.7436,2.745,2.746,2.7473,2.7525,2.7535,2.7503,2.7574,2.7582,2.7596,2.7586,2.762,2.7622,2.7634,2.7633,2.7631,2.7574,0,0,0,0,0,0,2.7313,2.7323,2.7319,2.7371,2.7384,2.7408,2.7449,2.7461,2.7477,2.7482,2.7531,2.754,2.7576,2.7593,2.7598,2.7589,2.7623,2.7635,2.7633,2.7632,2.7577,2.757,2.7565,0,0,0,0,0,2.731,2.7299,2.7319,2.7327,2.7381,2.7407,2.7414,2.7456,2.7475,2.7473,2.7508,2.7538,2.7586,2.7593,2.76,2.7592,2.7636,2.7634,2.7632,2.7579,2.7572,2.7565,0,0,0,0,0,0,2.7243,2.7306,2.7329,2.7334,2.7365,2.7418,2.7417,2.7446,2.7472,2.7476,2.7527,2.7537,2.7546,2.757,2.7578,2.7589,2.7615,2.7614,2.7573,2.7566,2.756,2.7555,2.7625,0,0,0,0,0,2.7229,2.7245,2.73,2.7299,2.7313,2.7362,2.7375,2.7405,2.7439,2.7452,2.7487,2.7519,2.7541,2.7555,2.7578,2.758,2.7594,2.7578,2.7573,2.7567,2.7567,2.7574,2.7569,2.7624,2.7624,2.7624,0,0,2.72,2.7237,2.7243,2.7287,2.7314,2.7331,2.7373,2.7387,2.7401,2.7454,2.7471,2.7498,2.7536,2.7546,2.7552,2.7566,2.7554,2.7565,2.756,2.7562,2.7571,2.7566,2.7561,2.7622,2.7623,2.7623,0,0,2.7157,2.7185,2.7189,2.7216,2.7258,2.7291,2.7292,2.7342,2.7363,2.738,2.7422,2.7438,2.7475,2.7502,2.7521,2.7491,2.7522,2.7497,2.7467,2.7474,2.7469,2.7466,2.7458,2.7455,2.7496,2.7496,2.7496,0,2.7115,2.7142,2.7187,2.7202,2.7221,2.7271,2.7277,2.7301,2.7348,2.736,2.7376,2.7426,2.7455,2.7474,2.7467,2.7479,2.7484,2.7492,2.7466,2.7463,2.746,2.7454,2.7451,2.7493,2.7493,2.7494,2.7494,0,2.7091,2.7109,2.7108,2.7154,2.7172,2.7182,2.723,2.7244,2.7273,2.7305,2.7324,2.7362,2.7395,2.7402,2.7429,2.7425,2.7433,2.7457,2.7484,2.7451,2.7446,2.7444,2.7489,2.749,2.7491,2.7491,0,0,2.7007,2.708,2.7079,2.7102,2.7153,2.7168,2.7181,2.7215,2.7227,2.7258,2.7272,2.7304,2.7328,2.7349,2.738,2.7385,2.7364,2.7409,2.7411,2.7402,2.7366,2.7349,2.7345,2.7384,2.7384,2.7384,2.7364,0,2.6973,2.7,2.7043,2.7056,2.7075,2.7125,2.7137,2.717,2.7201,2.7223,2.7257,2.728,2.7307,2.7321,2.7328,2.7365,2.7358,2.7367,2.74,2.74,2.739,2.7342,2.7324,2.7303,2.7362,2.7361,2.7361,0,2.6937,2.6968,2.6983,2.7037,2.7046,2.7056,2.7093,2.7112,2.7152,2.7174,2.7199,2.7234,2.7253,2.7278,2.7305,2.7311,2.7327,2.7347,2.7347,2.7353,2.7379,2.7349,2.7297,2.7294,2.7358,2.7358,2.7358,0,2.6878,2.6923,2.6939,2.6956,2.7018,2.7024,2.705,2.7091,2.711,2.7142,2.7156,2.7189,2.7207,2.7233,2.7277,2.729,2.7301,2.7328,2.7322,2.7321,2.7323,2.7322,2.7275,2.733,2.733,2.733,2.733,0,2.6838,2.6846,2.6914,2.6923,2.6935,2.6985,2.6996,2.7026,2.7063,2.7081,2.7125,2.7141,2.7198,2.7221,2.7255,2.7275,2.7282,2.7302,2.7312,2.7299,2.7297,2.7312,2.7315,2.7329,2.7329,2.7329,2.7329,0,2.6773,2.6819,2.684,2.6897,2.6912,2.6919,2.6968,2.6981,2.7015,2.7038,2.7046,2.71,2.713,2.7177,2.722,2.7243,2.7258,2.7272,2.7245,2.7251,2.7243,2.7244,2.7204,2.7203,2.7256,2.7256,2.7255,0,2.6746,2.6754,2.6812,2.6828,2.6853,2.6877,2.6898,2.6948,2.6967,2.7015,2.7023,2.7056,2.7086,2.7132,2.7176,2.721,2.7227,2.7211,2.7232,2.7221,2.723,2.723,2.7232,2.7206,2.7205,2.7204,2.7204,0,2.6692,2.6715,2.6743,2.6779,2.6802,2.6833,2.6866,2.6876,2.6934,2.6954,2.6986,2.7009,2.7055,2.7089,2.713,2.7158,2.7192,2.7197,2.7198,2.7186,2.7171,2.7182,2.7233,2.7198,2.7198,2.7199,2.7199,2.7199,2.6647,2.6658,2.6702,2.6733,2.6763,2.6794,2.681,2.6847,2.6874,2.6916,2.6944,2.6975,2.7019,2.7077,2.7104,2.713,2.7144,2.7144,2.7145,2.7145,2.7142,2.7166,2.7137,2.7137,2.7138,2.7138,2.7138,0,2.6599,2.663,2.6658,2.6704,2.6728,2.6758,2.6797,2.6815,2.6842,2.688,2.6909,2.6947,2.6981,2.7029,2.7067,2.7079,2.7095,2.7087,2.7088,2.7094,2.7125,2.7122,2.7074,2.7074,2.7074,2.7074,2.7074,2.7074,2.6577,2.6598,2.6626,2.6664,2.6695,2.6727,2.6747,2.6776,2.6807,2.6848,2.6877,2.6908,2.695,2.6992,2.7026,2.7039,2.7052,2.7039,2.7058,2.7086,2.7092,2.7097,2.7095,2.7041,2.7041,2.7025,2.7025,2.7025]}]]